NWS Melbourne » East Central Florida Hourly Weather Roundup

MIARWRMLB 000
TTAA00 KMLB 210011
HOURLY WEATHER ROUNDUP AROUND FLORIDA
NATIONAL WEATHER SERVICE OFFICE MELBOURNE FL
800 PM EDT SUN APR 20 2014
  
CITY           SKY/WX    TMP DP  RH WIND       PRES   REMARKS
MELBOURNE      CLOUDY    65  58  78 N16       30.04R                  
FORT PIERCE    PTCLDY    66  58  75 N8        30.03R                  
ORLANDO INTL   CLOUDY    66  56  70 N9        30.07R                  
DAYTONA BEACH  CLOUDY    62  56  80 N15       30.08R                  
VERO BEACH     PTCLDY    65  60  84 N13       30.03S                  
$$
...ELSEWHERE ACROSS CENTRAL FLORIDA...
  
CITY           SKY/WX    TMP DP  RH WIND       PRES   REMARKS
PATRICK AFB    CLOUDY    65  59  80 N13       30.05S                  
JFK SPACE CTR  CLOUDY    63  57  82 N7        30.06S                  
CAPE CANAVERAL MOCLDY    63  57  80 N15G22    30.05R                  
TITUSVILLE     CLOUDY    63  57  82 N12       30.06                   
ORLANDO EXEC   CLOUDY    65  55  70 NW9       30.07R                  
LEESBURG       CLOUDY    64  56  75 N6        30.09R                  
SANFORD        CLOUDY    64  57  78 N7        30.07R                  
WINTER HAVEN   PTCLDY    68  56  65 N8        30.06S                  
KISSIMMEE      MOCLDY    66  59  77 N7        30.06S                  
OKEECHOBEE     CLOUDY    68  59  73 N6        30.03R                  
TAMPA          PTCLDY    66  58  75 VRB7      30.06R                  
$$
...NORTHERN FLORIDA...
  
CITY           SKY/WX    TMP DP  RH WIND       PRES   REMARKS
DELAND         CLOUDY    63  55  77 NE9       30.09R                  
NEW SMYRNA BCH CLOUDY    63  57  82 N14G25    30.09R                  
PALM COAST     CLOUDY    60  55  81 N10G16    30.09R                  
ST AUGUSTINE   CLOUDY    62  55  77 N8        30.09S                  
THE VILLAGES     N/A     63  55  77 N6        30.08S                  
OCALA          CLOUDY    63  54  72 N8        30.10R                  
GAINESVILLE    CLOUDY    61  54  77 N6        30.10R                  
JACKSONVILLE   CLOUDY    59  56  89 NW5       30.10R                  
TALLAHASSEE    MOCLDY    62  52  69 NE6       30.12S                  
$$
...ALONG THE SOUTHEAST COAST TO THE KEYS...
  
CITY           SKY/WX    TMP DP  RH WIND       PRES   REMARKS
WEST PALM BCH  PTCLDY    70  61  73 N10       30.00R                  
MIAMI          PTCLDY    75  57  53 NW7       30.00R                  
KEY WEST       CLOUDY    73  64  73 N12       30.02S                  
$$
...MARINE REPORTS...
  
STATION/POSITION TIME  TEMP    WIND        PRES    WAVE   SWELL
                       AIR SEA DIR/SP/G            HT/PER HT/PER/DIR
                 (UTC) (F)     (DEG/KT/KT) (MB)    (FT/S) (FT/S/D)
ST AUGUSTINE FP  0000   62      10/ 13/ 17 1019.2S
20NM E CAPE CANA 0000   65 71  330/ 21/ 25 1016.6S   7/ 6   3/ 50/ 9
120 E NEW SMYRNA 0000   72 76  350/ 23/ 27 1013.9R   7/ 9   5/ 60/ 9
TRIDENT PIER     0000   63 73   10/ 13/ 17 1016.9S
4NM E PORT CANAV 0000      72                N/A     3/ 9
6NM NE FPR INLET 0000      74                N/A     5/10   2/ 60/11
SETTLEMENT PT GB 0000   72     320/ 20/ 22 1016.1R
$$
  
 


USA.gov is the U.S. government's official web portal to all federal, state and local government web resources and services.